Temp
-12 -11 -11 -11 -11 -11 -11 -11 -10 -10 -10 -10 -10 -10 -10 -10 -10 -10 -10 -10 -10 -10 -10 -10 -10 -10 -10 -10 -10 -10 -10 -10 -10 -10 -9 -9 -9 -9 -8 -8 -8 -8 -8 -8 -8
-13 -12 -12 -11 -11 -11 -11 -11 -11 -11 -11 -11 -10 -10 -10 -10 -10 -10 -10 -10 -10 -10 -10 -10 -10 -10 -10 -10 -10 -10 -10 -10 -10 -10 -10 -9 -9 -9 -9 -9 -9 -8 -9 -8 -8
-13 -13 -13 -12 -12 -12 -12 -12 -12 -11 -11 -11 -11 -11 -11 -11 -10 -10 -10 -10 -10 -11 -10 -10 -10 -10 -10 -10 -10 -10 -10 -10 -11 -11 -10 -9 -9 -9 -9 -10 -9 -9 -8 -9 -8
-14 -14 -13 -13 -13 -13 -13 -12 -12 -12 -12 -12 -12 -11 -11 -11 -10 -10 -11 -10 -11 -11 -11 -11 -11 -11 -11 -11 -11 -10 -10 -10 -11 -11 -10 -10 -10 -9 -9 -9 -9 -9 -9 -9 -9
-14 -14 -14 -14 -14 -14 -14 -13 -13 -13 -13 -13 -12 -12 -12 -11 -11 -10 -11 -11 -11 -11 -11 -11 -11 -11 -11 -11 -11 -11 -10 -10 -10 -11 -10 -10 -10 -10 -10 -10 -9 -9 -9 -9 -9
-15 -14 -14 -14 -14 -14 -14 -14 -14 -13 -13 -13 -13 -13 -12 -11 -12 -11 -11 -11 -12 -11 -11 -11 -11 -11 -11 -11 -11 -11 -11 -11 -11 -11 -11 -11 -11 -10 -10 -10 -10 -9 -9 -9 -9
-15 -15 -15 -15 -15 -15 -15 -15 -14 -14 -14 -14 -14 -13 -12 -11 -12 -11 -11 -12 -12 -12 -12 -12 -12 -12 -11 -11 -11 -11 -11 -11 -11 -11 -11 -11 -10 -10 -11 -11 -10 -10 -9 -9 -9
-16 -16 -16 -16 -16 -15 -15 -15 -15 -15 -15 -15 -15 -14 -13 -13 -13 -12 -12 -12 -12 -12 -13 -13 -13 -13 -12 -12 -11 -11 -11 -11 -11 -11 -12 -12 -9 -11 -11 -11 -10 -10 -10 -10 -9
-18 -17 -17 -17 -16 -16 -16 -16 -16 -16 -16 -16 -15 -15 -13 -14 -13 -13 -13 -13 -13 -13 -13 -13 -14 -13 -13 -12 -12 -12 -11 -11 -11 -12 -12 -12 -10 -11 -11 -11 -11 -11 -10 -10 -10
-19 -19 -19 -19 -18 -18 -18 -18 -18 -18 -17 -16 -15 -15 -13 -13 -14 -14 -14 -14 -14 -15 -15 -14 -14 -14 -13 -13 -12 -12 -12 -12 -11 -12 -13 -12 -11 -11 -11 -11 -12 -11 -11 -10 -10
-20 -20 -20 -20 -20 -20 -20 -20 -21 -20 -17 -16 -15 -16 -16 -15 -15 -15 -15 -15 -15 -15 -15 -15 -15 -13 -13 -14 -14 -14 -13 -12 -12 -12 -13 -12 -12 -11 -11 -11 -11 -12 -11 -11 -10
-22 -21 -21 -21 -21 -21 -21 -21 -21 -19 -19 -19 -18 -17 -16 -16 -16 -16 -16 -16 -16 -16 -16 -16 -15 -14 -16 -15 -15 -15 -15 -13 -13 -13 -14 -13 -12 -11 -12 -12 -11 -12 -12 -11 -11
-22 -22 -22 -22 -22 -22 -22 -21 -21 -21 -21 -21 -21 -20 -19 -18 -17 -17 -17 -17 -17 -17 -17 -17 -15 -17 -16 -16 -16 -16 -15 -15 -14 -15 -15 -15 -13 -12 -12 -12 -12 -12 -12 -12 -11
-23 -22 -22 -22 -23 -22 -22 -22 -22 -22 -22 -21 -21 -20 -21 -20 -19 -19 -19 -18 -18 -18 -18 -19 -18 -18 -18 -17 -17 -17 -16 -17 -17 -16 -15 -16 -15 -13 -12 -12 -13 -12 -12 -12 -12
-24 -23 -23 -23 -22 -22 -22 -22 -23 -22 -23 -22 -21 -21 -22 -21 -20 -20 -20 -20 -19 -19 -19 -18 -18 -19 -19 -18 -18 -18 -18 -18 -18 -17 -17 -16 -16 -14 -13 -13 -13 -13 -13 -13 -13
-25 -24 -23 -23 -23 -23 -23 -23 -23 -24 -23 -23 -22 -21 -21 -21 -21 -20 -20 -21 -21 -21 -20 -19 -19 -20 -19 -19 -19 -19 -19 -19 -19 -18 -18 -16 -16 -15 -13 -14 -14 -13 -13 -13 -13
-27 -25 -24 -24 -23 -23 -23 -23 -24 -24 -23 -23 -21 -21 -21 -21 -21 -21 -20 -21 -20 -20 -20 -20 -19 -19 -19 -19 -20 -19 -19 -19 -19 -19 -19 -17 -17 -16 -14 -14 -14 -13 -13 -13 -13
-28 -27 -26 -25 -24 -23 -23 -23 -24 -23 -22 -22 -21 -21 -21 -21 -22 -21 -21 -21 -20 -21 -20 -20 -20 -20 -19 -19 -20 -20 -20 -20 -20 -19 -18 -18 -18 -16 -15 -15 -14 -14 -14 -14 -14
-27 -27 -27 -27 -24 -24 -24 -24 -24 -23 -23 -22 -23 -22 -21 -22 -21 -21 -21 -21 -21 -21 -21 -20 -20 -20 -20 -20 -20 -20 -20 -20 -21 -20 -20 -19 -18 -17 -16 -15 -15 -15 -15 -15 -14
-28 -28 -27 -28 -25 -25 -25 -26 -24 -24 -23 -23 -23 -22 -22 -21 -21 -21 -21 -21 -21 -21 -21 -21 -21 -21 -21 -21 -21 -20 -20 -21 -21 -21 -20 -19 -19 -17 -16 -16 -16 -16 -16 -15 -15
-28 -28 -27 -27 -28 -27 -27 -26 -24 -24 -23 -24 -23 -22 -22 -20 -20 -21 -21 -20 -21 -21 -22 -22 -21 -20 -21 -20 -21 -21 -21 -21 -21 -21 -20 -20 -19 -18 -17 -18 -17 -17 -16 -16 -16
-28 -28 -28 -27 -27 -28 -28 -27 -25 -24 -24 -23 -23 -22 -22 -21 -22 -21 -21 -21 -22 -22 -22 -22 -22 -21 -21 -21 -21 -22 -21 -22 -22 -21 -21 -21 -20 -18 -17 -18 -19 -18 -18 -18 -17
-28 -28 -28 -27 -27 -27 -27 -27 -26 -25 -25 -24 -24 -23 -23 -22 -22 -21 -22 -22 -22 -22 -22 -22 -22 -22 -22 -22 -21 -21 -21 -21 -22 -22 -21 -21 -19 -18 -19 -19 -19 -19 -19 -18 -18
-28 -28 -28 -28 -28 -27 -27 -27 -27 -25 -25 -24 -23 -23 -23 -23 -23 -22 -22 -22 -23 -23 -23 -23 -23 -22 -22 -22 -22 -22 -21 -22 -22 -22 -20 -21 -19 -18 -19 -19 -19 -20 -19 -19 -19
-28 -28 -28 -27 -27 -27 -27 -27 -27 -26 -26 -25 -24 -24 -23 -23 -22 -22 -23 -23 -22 -22 -23 -22 -22 -22 -22 -22 -22 -22 -21 -21 -21 -21 -22 -20 -21 -18 -20 -20 -19 -19 -20 -20 -20
-28 -28 -26 -27 -27 -27 -27 -27 -27 -26 -25 -24 -23 -23 -22 -22 -22 -21 -22 -22 -22 -23 -23 -22 -22 -22 -22 -22 -22 -22 -21 -21 -21 -22 -22 -22 -21 -20 -20 -20 -20 -20 -20 -20 -19
-28 -28 -27 -27 -27 -27 -27 -27 -26 -26 -25 -24 -24 -23 -23 -22 -22 -23 -23 -23 -23 -23 -23 -22 -23 -23 -22 -22 -22 -21 -21 -22 -23 -23 -22 -22 -21 -21 -21 -21 -20 -20 -19 -19 -19
Height
5713 5720 5726 5732 5737 5743 5749 5755 5761 5766 5771 5777 5782 5788 5794 5799 5804 5809 5815 5820 5823 5827 5828 5830 5832 5836 5840 5844 5847 5849 5853 5859 5864 5863 5862 5863 5869 5872 5875 5877 5880 5879 5882 5883 5882
5700 5706 5713 5719 5725 5731 5738 5744 5749 5755 5760 5766 5772 5778 5783 5790 5795 5802 5809 5811 5816 5819 5822 5824 5827 5829 5834 5839 5841 5843 5847 5854 5856 5856 5857 5857 5864 5868 5870 5872 5874 5875 5878 5881 5879
5687 5692 5699 5706 5712 5718 5725 5731 5737 5742 5748 5754 5760 5767 5774 5779 5785 5794 5799 5803 5807 5811 5815 5819 5823 5825 5829 5831 5834 5839 5841 5845 5850 5851 5852 5852 5856 5862 5866 5866 5868 5871 5872 5877 5876
5672 5680 5685 5691 5698 5704 5710 5717 5724 5730 5736 5742 5748 5755 5762 5769 5777 5783 5790 5794 5798 5803 5807 5811 5816 5818 5822 5824 5828 5829 5834 5838 5842 5844 5845 5849 5850 5852 5859 5862 5861 5866 5869 5871 5873
5655 5664 5670 5676 5683 5691 5697 5703 5709 5716 5723 5729 5736 5742 5749 5758 5769 5772 5781 5785 5790 5793 5797 5800 5803 5808 5812 5817 5818 5819 5828 5829 5833 5839 5837 5841 5845 5845 5850 5856 5856 5858 5863 5866 5867
5639 5647 5655 5662 5669 5677 5684 5690 5696 5702 5708 5715 5722 5729 5738 5749 5756 5761 5767 5774 5776 5781 5785 5788 5793 5797 5801 5806 5809 5813 5815 5824 5827 5831 5830 5830 5838 5836 5846 5846 5849 5853 5852 5859 5862
5620 5629 5639 5647 5654 5662 5669 5675 5681 5687 5694 5700 5707 5715 5726 5739 5743 5750 5756 5760 5767 5770 5773 5778 5782 5785 5791 5796 5801 5805 5808 5812 5816 5823 5821 5822 5828 5834 5837 5838 5843 5847 5848 5848 5855
5601 5612 5622 5631 5639 5647 5654 5661 5666 5672 5677 5684 5693 5702 5715 5725 5731 5737 5742 5746 5750 5757 5761 5765 5769 5774 5781 5786 5790 5795 5796 5801 5806 5811 5814 5812 5822 5831 5828 5831 5836 5839 5843 5841 5844
5582 5593 5604 5613 5623 5631 5639 5647 5651 5656 5662 5668 5680 5690 5705 5714 5720 5724 5729 5735 5736 5742 5747 5752 5755 5760 5768 5775 5777 5780 5783 5788 5798 5802 5804 5802 5811 5822 5822 5822 5826 5830 5832 5836 5837
5563 5575 5587 5596 5606 5615 5624 5630 5633 5635 5644 5654 5665 5675 5690 5698 5704 5709 5717 5723 5725 5729 5735 5741 5745 5751 5761 5761 5766 5769 5775 5781 5788 5795 5790 5790 5797 5805 5812 5811 5816 5819 5824 5827 5830
5545 5557 5569 5581 5590 5599 5607 5611 5615 5619 5631 5643 5657 5669 5678 5685 5692 5700 5705 5709 5712 5716 5721 5727 5731 5744 5751 5751 5754 5757 5762 5768 5778 5780 5773 5776 5784 5791 5799 5803 5807 5811 5813 5817 5819
5527 5541 5553 5565 5575 5582 5588 5594 5605 5620 5624 5631 5638 5645 5657 5664 5674 5684 5688 5693 5697 5705 5709 5712 5719 5735 5731 5739 5742 5745 5748 5757 5763 5764 5757 5762 5770 5782 5784 5793 5800 5802 5805 5807 5810
5510 5525 5538 5550 5559 5563 5575 5591 5598 5608 5610 5617 5625 5634 5641 5652 5661 5671 5674 5680 5684 5692 5696 5700 5716 5717 5720 5727 5731 5734 5738 5746 5748 5751 5749 5749 5754 5769 5774 5782 5787 5795 5795 5798 5799
5493 5507 5521 5533 5538 5553 5569 5583 5588 5595 5595 5599 5607 5621 5627 5636 5647 5657 5664 5670 5672 5681 5686 5688 5705 5705 5706 5713 5720 5721 5732 5730 5734 5734 5738 5738 5736 5755 5763 5771 5780 5783 5784 5787 5789
5471 5490 5504 5513 5531 5547 5568 5572 5576 5584 5578 5585 5599 5610 5618 5628 5644 5649 5653 5654 5660 5669 5673 5684 5691 5694 5695 5710 5708 5714 5717 5718 5720 5721 5723 5729 5724 5747 5751 5760 5771 5773 5774 5776 5775
5454 5471 5488 5496 5517 5539 5549 5560 5567 5566 5559 5573 5587 5599 5608 5620 5627 5634 5641 5645 5652 5656 5661 5673 5676 5677 5686 5694 5695 5702 5706 5708 5708 5710 5704 5721 5717 5725 5745 5756 5762 5764 5764 5765 5764
5441 5455 5470 5483 5511 5522 5534 5540 5543 5547 5555 5564 5581 5592 5603 5609 5616 5624 5633 5636 5643 5649 5654 5664 5666 5672 5677 5682 5685 5689 5695 5695 5695 5695 5696 5713 5702 5708 5738 5750 5748 5753 5754 5754 5753
5432 5445 5458 5473 5491 5506 5517 5522 5521 5539 5547 5552 5574 5586 5589 5597 5604 5615 5622 5627 5635 5641 5648 5653 5657 5664 5670 5673 5679 5680 5685 5684 5684 5686 5690 5692 5687 5707 5724 5737 5737 5739 5738 5739 5742
5424 5436 5447 5459 5478 5491 5498 5497 5510 5529 5544 5554 5563 5571 5581 5585 5598 5604 5612 5621 5630 5635 5641 5645 5649 5655 5659 5663 5666 5672 5672 5682 5674 5676 5672 5677 5682 5697 5714 5723 5725 5724 5723 5724 5727
5416 5429 5441 5452 5466 5477 5482 5489 5506 5523 5537 5546 5557 5561 5570 5580 5587 5596 5603 5615 5621 5626 5633 5636 5640 5644 5648 5650 5654 5658 5669 5666 5665 5664 5663 5665 5674 5683 5706 5711 5710 5706 5705 5708 5711
5412 5423 5435 5448 5457 5463 5468 5481 5500 5515 5528 5540 5547 5554 5566 5575 5585 5594 5602 5608 5615 5621 5626 5629 5633 5636 5636 5641 5646 5650 5652 5654 5655 5654 5656 5657 5660 5682 5686 5690 5691 5692 5691 5693 5695
5407 5419 5431 5441 5449 5454 5463 5473 5494 5507 5520 5531 5539 5548 5562 5575 5580 5588 5594 5602 5607 5612 5617 5622 5624 5626 5628 5632 5636 5639 5643 5644 5640 5647 5646 5646 5649 5673 5674 5674 5675 5676 5677 5679 5683
5409 5419 5426 5434 5440 5450 5460 5471 5485 5497 5511 5524 5533 5544 5555 5564 5571 5583 5590 5596 5600 5605 5610 5614 5616 5619 5621 5624 5627 5628 5631 5633 5634 5637 5636 5637 5643 5669 5662 5661 5662 5663 5666 5666 5670
5405 5413 5422 5428 5439 5448 5456 5467 5478 5492 5508 5519 5530 5539 5546 5554 5568 5577 5584 5589 5593 5598 5601 5604 5607 5610 5614 5616 5619 5619 5622 5623 5624 5624 5629 5627 5634 5645 5650 5648 5649 5652 5656 5659 5657
5405 5414 5420 5427 5435 5445 5454 5466 5476 5485 5500 5512 5521 5532 5542 5550 5559 5568 5576 5580 5586 5591 5594 5597 5600 5603 5604 5607 5608 5611 5613 5614 5614 5619 5615 5625 5621 5634 5638 5636 5636 5635 5633 5633 5633
5405 5413 5410 5428 5434 5445 5452 5461 5470 5481 5495 5507 5511 5530 5537 5544 5557 5566 5572 5575 5580 5585 5588 5590 5593 5596 5597 5599 5602 5602 5605 5604 5604 5605 5606 5609 5612 5625 5620 5616 5614 5613 5615 5617 5621
5409 5415 5418 5425 5432 5438 5449 5460 5470 5478 5491 5506 5511 5523 5528 5542 5551 5561 5564 5568 5575 5577 5580 5581 5585 5588 5589 5591 5592 5594 5596 5596 5596 5596 5597 5597 5606 5610 5599 5602 5605 5606 5604 5604 5605
Wind_Speed
63 64 63 64 63 62 62 62 62 60 59 58 58 58 56 53 52 49 47 44 44 41 41 41 41 40 38 36 34 34 34 25 19 23 29 33 31 30 30 30 29 30 27 31 33
68 67 67 66 66 66 65 63 63 63 63 62 61 60 60 58 57 55 50 49 47 46 47 46 45 45 42 39 40 38 36 29 26 28 30 31 29 29 30 30 31 34 32 28 29
72 70 72 71 70 69 68 67 66 65 64 64 63 63 63 61 61 56 55 55 54 52 52 51 48 48 47 46 46 42 41 37 31 32 36 37 32 28 29 31 35 34 35 29 30
73 73 72 71 72 70 70 70 69 69 68 67 66 65 65 65 63 61 59 59 58 56 55 54 53 53 51 51 49 49 46 44 39 35 39 36 36 35 31 32 36 34 34 30 33
75 75 73 71 72 71 71 71 71 71 71 70 70 69 68 67 63 64 60 59 59 59 60 60 59 58 56 53 54 54 49 50 47 41 44 41 38 37 38 31 38 39 36 33 31
78 76 76 74 73 72 72 73 72 72 72 72 72 71 71 68 65 66 65 63 63 63 63 64 64 62 62 59 58 56 55 51 50 45 46 47 38 43 33 34 35 37 43 38 37
78 77 77 75 74 73 73 73 74 73 72 72 72 73 73 69 68 68 67 66 64 65 66 66 65 65 65 63 62 61 60 58 54 50 53 52 48 44 36 37 39 36 39 43 37
81 79 78 76 73 73 72 72 73 72 72 73 73 74 74 71 70 70 69 69 67 68 67 67 67 67 66 66 66 65 66 64 60 55 53 56 54 43 44 43 42 40 38 43 41
82 81 80 78 76 75 73 71 72 72 72 73 73 73 73 72 71 70 71 69 70 69 68 69 69 69 69 70 71 70 71 69 63 57 55 58 58 50 47 46 46 45 44 42 47
76 79 80 79 78 76 74 73 72 75 76 75 75 75 75 74 72 71 70 68 70 68 68 69 68 70 71 74 74 72 71 70 67 60 60 62 63 59 52 53 49 50 46 44 47
76 74 75 76 76 76 75 70 61 68 81 81 77 74 71 69 69 69 69 69 69 72 71 70 70 71 70 69 69 69 71 72 70 65 65 68 69 66 62 57 55 51 42 38 40
79 74 71 70 70 71 73 75 70 69 65 70 74 76 77 75 74 69 70 71 71 72 71 72 75 70 70 68 64 64 68 73 72 69 70 71 72 68 67 61 57 49 47 42 41
81 77 73 68 66 69 68 66 66 64 66 65 61 60 65 68 70 73 71 72 71 70 71 72 71 64 67 65 65 65 65 64 67 61 65 64 72 71 69 63 57 53 43 41 42
83 79 76 74 74 69 63 60 59 60 62 66 65 62 58 62 61 62 65 67 71 68 66 65 63 63 63 62 61 64 63 60 56 60 65 60 63 67 66 63 53 46 47 43 44
88 84 79 79 74 68 60 61 61 55 62 64 62 60 59 58 56 53 52 55 60 64 65 67 62 58 61 61 60 59 54 59 58 58 60 57 62 68 56 51 43 40 42 44 44
79 87 83 80 75 68 66 62 60 62 72 59 57 56 58 58 58 58 53 47 44 48 52 54 58 56 52 54 60 55 58 56 60 60 62 63 69 58 59 50 46 50 50 47 48
62 77 87 82 73 71 69 68 68 68 70 67 48 45 51 51 54 56 55 54 49 44 47 51 51 49 54 50 52 54 56 58 61 57 65 56 66 79 58 55 57 57 53 51 53
51 58 66 80 78 73 72 73 74 72 38 47 52 56 42 49 49 49 52 53 53 48 40 42 49 48 44 47 52 51 51 55 57 61 63 63 69 64 63 57 55 55 55 53 45
51 53 52 63 76 74 76 77 77 73 68 50 40 57 62 60 53 52 48 47 46 43 42 40 42 45 45 47 49 47 53 50 56 56 58 65 68 64 53 48 53 54 50 51 45
51 53 55 52 68 71 70 68 74 71 68 65 57 47 47 48 50 48 46 41 42 43 39 41 41 40 38 42 46 50 50 52 53 54 54 54 52 65 59 55 56 51 52 54 46
53 58 54 56 52 63 64 68 72 68 68 65 65 61 48 38 42 43 43 34 35 37 42 40 41 41 40 39 40 42 46 51 55 56 55 41 44 41 44 49 53 54 53 50 46
51 57 57 58 56 57 62 65 68 68 70 68 44 62 63 60 59 33 33 25 25 32 38 39 40 38 37 36 37 39 40 43 51 52 53 54 54 36 35 45 44 46 49 50 53
50 44 49 60 55 55 55 60 65 69 66 68 65 44 48 57 51 31 23 24 26 26 32 35 37 38 38 38 37 38 39 42 45 47 52 55 56 40 41 35 48 44 57 52 51
35 36 44 51 55 50 50 57 58 61 67 56 44 57 71 63 48 41 26 23 24 26 31 34 37 39 37 37 37 37 36 38 41 44 44 47 48 46 49 55 55 56 53 56 54
43 41 44 38 45 52 48 48 58 58 68 59 65 44 49 56 60 53 38 25 25 24 24 28 31 33 37 39 39 39 38 40 43 40 45 41 46 40 40 45 51 57 58 62 62
44 41 40 32 36 39 44 45 55 60 64 44 39 58 48 51 60 48 44 34 33 30 32 30 30 29 33 35 36 38 36 41 44 46 45 44 44 38 47 52 52 55 59 61 62
39 30 28 26 34 37 41 42 42 53 68 63 32 42 42 48 52 51 49 38 42 38 35 30 30 30 33 34 38 37 36 39 41 42 43 44 41 42 50 48 52 58 62 62 64
Wind_Direction
233 235 234 234 235 235 234 234 235 236 237 237 239 240 241 242 244 245 247 250 255 259 262 265 268 267 267 270 274 274 274 277 271 267 269 275 276 282 285 288 288 287 292 288 286
234 233 237 235 236 235 235 235 236 236 237 238 238 240 242 242 243 245 247 250 251 254 256 259 262 266 269 271 270 273 275 278 272 271 270 272 277 283 286 285 285 285 289 298 291
238 235 233 235 236 236 236 235 236 237 237 238 238 239 241 242 244 244 245 247 248 249 252 254 257 259 263 266 269 270 272 275 275 274 275 278 280 278 279 283 282 283 290 291 292
238 238 235 233 234 236 237 237 236 236 237 238 239 238 239 240 244 245 245 246 248 250 252 254 255 257 257 260 265 267 268 270 273 274 277 276 281 280 278 281 285 285 281 287 286
240 239 238 235 236 235 237 238 238 238 238 237 239 240 240 241 242 247 246 248 248 249 250 252 253 253 256 257 258 261 263 266 269 272 275 277 276 276 282 278 280 285 281 278 280
239 239 239 238 237 237 238 238 239 239 239 240 240 240 240 241 242 244 245 245 248 248 249 250 251 253 254 255 257 260 262 263 267 270 271 272 270 271 273 273 273 278 284 280 275
238 237 238 237 237 237 238 238 239 238 239 239 240 241 241 241 242 244 246 247 246 249 250 250 251 251 252 255 256 258 260 262 261 262 265 267 267 276 269 266 273 276 281 283 275
236 236 236 236 235 236 236 238 239 240 239 239 238 239 240 240 241 244 245 247 246 245 248 251 251 252 253 255 255 255 257 257 259 260 262 266 265 267 269 270 271 271 273 279 280
233 233 233 233 234 234 234 235 237 238 239 239 240 240 240 242 243 244 245 247 249 247 246 247 249 250 251 252 254 254 256 257 257 260 261 262 267 265 268 270 269 272 276 275 275
234 231 230 231 231 231 231 232 234 235 236 237 238 240 241 241 242 243 245 247 249 250 249 249 249 251 253 254 256 258 259 260 261 262 261 260 263 264 262 263 267 272 277 278 273
235 233 230 228 230 231 231 231 228 230 235 239 243 243 243 243 243 244 246 246 246 248 250 250 250 252 256 256 256 256 257 258 258 259 259 259 261 262 263 262 266 274 275 273 276
232 231 229 228 228 230 231 233 233 235 238 236 237 238 240 238 239 239 241 243 245 247 247 248 250 250 248 250 250 251 254 256 255 255 259 258 258 259 260 261 264 264 262 269 268
229 228 228 226 226 226 229 231 234 235 237 235 235 236 240 238 237 238 239 241 243 244 246 249 251 248 249 249 248 247 250 253 255 252 254 260 259 255 257 260 260 264 261 263 265
225 225 225 225 224 224 225 228 230 233 235 235 234 231 234 234 235 237 241 243 243 244 245 247 247 245 243 245 246 246 249 249 250 249 248 251 256 254 255 260 250 253 263 270 264
222 223 222 224 225 224 224 225 228 228 239 234 231 232 232 233 234 234 237 239 242 245 244 247 248 248 247 247 247 248 246 247 248 250 247 239 247 249 250 238 240 251 263 267 264
221 219 219 221 221 219 219 221 223 227 225 231 232 230 230 231 230 230 230 232 239 240 242 244 244 241 245 244 243 245 245 246 248 248 250 239 247 243 233 243 255 259 260 262 265
214 221 218 220 217 217 215 216 216 217 233 230 221 225 231 230 232 232 231 234 238 242 243 242 243 245 246 242 241 244 246 247 248 251 250 248 254 249 241 249 257 254 254 261 267
208 210 216 220 214 213 214 216 215 214 215 224 226 224 223 221 226 232 236 233 234 239 243 244 242 244 248 247 246 244 245 247 250 250 249 249 253 253 254 247 249 252 254 255 259
203 207 207 213 213 213 213 215 216 216 216 215 217 224 232 233 230 228 231 234 235 239 244 249 248 245 244 247 245 245 245 249 253 252 255 251 251 252 252 248 251 257 255 254 260
200 199 202 203 209 213 213 216 215 216 215 221 217 198 213 212 215 219 226 234 237 234 238 246 248 246 245 245 248 248 247 248 249 253 256 259 258 254 247 254 254 253 255 254 253
194 199 202 198 204 209 209 211 215 212 214 218 215 222 220 214 217 233 236 238 244 240 240 245 250 252 250 251 251 249 247 247 249 252 254 265 257 253 248 245 250 250 251 253 248
195 204 201 197 197 210 207 210 216 212 214 213 222 222 231 229 237 228 232 227 241 241 243 245 247 250 252 255 255 253 251 250 250 249 253 257 252 241 247 233 242 235 242 244 242
196 202 200 201 197 204 210 209 215 215 211 219 226 212 214 219 221 236 222 229 236 239 241 246 245 251 252 253 255 255 252 250 253 254 255 259 255 236 242 245 248 251 244 247 247
194 201 197 210 207 205 209 204 206 211 203 208 212 220 227 230 233 225 214 217 227 238 240 242 242 242 249 256 254 255 253 255 256 255 256 258 257 244 245 249 250 248 245 240 249
191 180 194 192 204 208 212 208 204 201 201 211 220 220 220 223 222 219 226 220 234 234 237 240 243 245 244 246 250 249 253 256 259 259 256 258 258 254 251 251 250 250 251 250 254
197 198 181 191 205 213 215 208 209 204 190 195 202 218 227 223 222 227 219 226 244 253 249 247 243 244 246 248 248 252 253 255 256 256 260 263 262 259 256 253 253 254 253 254 255
184 205 208 203 207 206 207 211 207 205 193 203 211 214 223 215 221 227 244 245 246 244 246 239 240 244 246 246 249 253 254 256 261 263 264 262 262 257 256 259 254 252 255 254 254